Location: Meanaryar
(48.4161°N, 4.7315°W)
Time: 09:33:21
(UTC+00:00)

Cosmos 1092 Rocket - Pass Details

Date: 19 January 2021
Orbit: 954 x 995 km, 83.0° (Epoch: 02 March)

Event Time Altitude Azimuth Distance (km) Brightness Sun altitude
Rises 18:13:12 0° 149° (SSE) 3,658 6.9 -12.3°
Reaches altitude 10° 18:16:06 10° 137° (SE) 2,709 6.1 -12.7°
Maximum altitude 18:21:03 26° 83° (E) 1,811 4.8 -13.5°
Drops below altitude 10° 18:25:58 10° 30° (NNE) 2,704 5.9 -14.3°
Sets 18:28:52 0° 18° (NNE) 3,651 6.7 -14.8°
